www.pogodaiklimat.ru

Погода и климат >> Архив погоды >> Корея >> Масан


ПОГОДА в Масане

  • Прогноз погоды в Масане
  • Монитор погоды в Масане

АРХИВ ПОГОДЫ в Масане

Время (UTC), дата Ветер
(напр.,м/с)
 
Видим.   Явления Облачность Т
(С)
Тd
(С)
f
(%)
Тe
(С)
Тes
(С)
Комфортность P
(гПа)
Po
(гПа)
Тmin
(С)
Tmax
(С)
R
(мм)
R24
(мм)
S
(см)
00 11.06 С 1 20 км 3/3 1500 м
[Sc]
+19.8 +12.0 61 +22 +31 комфорт 1009.3 1005.0 +16.6 0.0
03 11.06 20 км н/о +22.9 +13.0 54 +26 +28 жарко 1008.6 1004.3
06 11.06 Ю 4 20 км 3/3 1500 м
[Sc]
+21.1 +13.2 61 +23 +30 комфорт 1008.1 1003.8
09 11.06 20 км н/о +19.5 +13.4 68 +21 +22 комфорт 1008.0 1003.7
12 11.06 З 2 20 км 8/8 600 м
[Sc]
+17.9 +13.6 76 +18 +18 1009.6 1005.2 +23.6 0.0
15 11.06 ЮЗ 1 19 км 9// 600 м
[Sc]
+17.7 +13.8 78 +19 +19 1010.4 1006.0
18 11.06 штиль 0 17 км 8/8 600 м
[Sc]
+17.1 +14.1 83 +17 +17 1010.3 1005.9
21 11.06 12 км н/о +16.6 +14.2 86 +16 +17 1010.3 1005.9
00 12.06 В 5 16 км 8/8 600 м
[Sc]
+21.0 +15.3 70 +24 +25 комфорт 1011.5 1007.1 +15.9 0.0
03 12.06 17 км н/о +24.1 +15.5 59 +27 +32 жарко 1011.0 1006.7
06 12.06 ЮВ 4 18 км 1/1 1000 м
[Sc]
+21.4 +14.0 63 +24 +33 комфорт 1010.1 1005.8
09 12.06 ЮВ 4 20 км ясно +19.4 +13.9 70 +21 +22 комфорт 1010.1 1005.7
12 12.06 ЮЗ 2 20 км ясно +17.1 +13.2 78 +17 +17 1011.5 1007.1 +24.7
15 12.06 З 2 20 км н/о +16.3 +13.5 83 +16 +16 1012.3 1007.9
18 12.06 З 1 19 км ясно +15.7 +13.7 88 +16 +16 1011.4 1006.9
21 12.06 С 1 8000 м дымка ясно +16.5 +13.7 84 +17 +18 1011.5 1007.1
00 13.06 В 4 16 км ясно +21.3 +14.6 66 +24 +32 комфорт 1012.1 1007.7 +15.2
03 13.06 ЮВ 4 17 км ясно +22.3 +14.9 63 +26 +40 жарко 1011.1 1006.8
06 13.06 ЮВ 4 20 км 6/0
[Ci fib]
+21.5 +14.3 64 +24 +33 комфорт 1009.8 1005.5
09 13.06 Ю 3 20 км 8/0
[Ci sp]
+21.8 +11.4 52 +24 +25 комфорт 1009.0 1004.7
12 13.06 20 км 8/0
[Ci sp]
+18.6 +11.6 64 1010.0 1005.6 +23.4
15 13.06 Ю 1 20 км 8/0
[Ci sp]
+17.8 +14.1 79 +19 +19 1009.6 1005.2
18 13.06 штиль 0 20 км 9/0
[Ci sp]
+17.6 +15.0 85 +18 +18 1008.3 1003.9
21 13.06 штиль 0 11 км 9/0
[Ci sp]
+17.5 +15.3 87 +17 +18 1007.9 1003.5
00 14.06 С 1 15 км 10/3 600 м
[Sc As op]
+19.4 +14.4 73 +22 +24 комфорт 1007.0 1002.7 +17.2
03 14.06 С 1 12 км слаб. дождь 10/10 1000 м
[Sc As op]
+20.6 +15.5 73 +25 +25 комфорт 1006.0 1001.7
06 14.06 С 3 13 км слаб. дождь 10/8 600 м
[Frnb As op]
+19.8 +15.8 78 +22 +23 комфорт 1004.3 1000.0 2
09 14.06 штиль 0 7000 м слаб. дождь 10/0 2000 м
[As op]
+18.9 +17.3 90 +20 +23 1004.1 999.8
12 14.06 С 4 9000 м слаб. дождь 10/0
[As op]
+18.2 +15.2 83 +18 +18 1003.8 999.4 +22.7 6
15 14.06 С 1 10 км слаб. дождь 10/0 2000 м
[As op]
+16.8 +14.9 89 +18 +18 1002.8 998.4
18 14.06 С 1 3900 м слаб. дождь 10/0
[As op]
+16.8 +15.6 93 +18 +18 1000.4 996.0 5
21 14.06 штиль 0 3900 м дымка 9/0
[Ci sp]
+16.4 +15.2 93 +16 +17 1000.4 996.0
00 15.06 С 2 10 км 9/3 600 м
[Sc Ci sp]
+20.2 +16.0 77 +24 +30 комфорт 999.9 995.6 +16.1 5
03 15.06 12 км н/о +25.0 +15.6 56 +28 +42 жарко 998.4 994.2
06 15.06 20 км н/о +28.3 +14.8 44 +31 +36 душно 996.4 992.2
09 15.06 20 км слаб. дождь н/о +20.7 +15.4 72 +24 +24 комфорт 997.1 992.8
12 15.06 З 2 20 км 3/3 1500 м
[Sc]
+19.1 +14.7 76 +21 +21 комфорт 999.6 995.3 +28.4 0.0
15 15.06 9000 м дымка н/о +17.8 +15.6 87 +19 +19 1001.5 997.1
18 15.06 штиль 0 6000 м дымка 3/3 300 м
[Sc]
+17.5 +16.0 91 +17 +17 1002.0 997.6
21 15.06 штиль 0 5000 м дымка ясно +16.9 +15.4 91 +17 +17 1004.2 999.8
00 16.06 С 4 19 км ясно +22.0 +14.6 63 +25 +33 комфорт 1005.8 1001.5 +16.3 0.0
03 16.06 15 км н/о +24.0 +16.2 62 +27 +35 жарко 1006.7 1002.4
06 16.06 20 км н/о +21.8 +15.8 69 +25 +28 комфорт 1008.2 1003.9
09 16.06 Ю 5 20 км 9// 600 м
[Sc]
+19.8 +14.8 73 +22 +22 комфорт 1009.1 1004.8
12 16.06 Ю 6 20 км 10/8 1000 м
[Sc As op]
+19.2 +14.6 75 +20 +20 1011.3 1006.9 +25.9
15 16.06 Ю 3 20 км 10/4 600 м
[Sc As op]
+18.8 +14.6 77 +20 +20 1012.3 1007.9
18 16.06 20 км н/о +18.3 +14.7 80 +19 +19 1011.9 1007.5
21 16.06 штиль 0 20 км 8/3 1000 м
[Sc Ci sp]
+17.8 +15.0 84 +18 +18 1012.8 1008.4
00 17.06 Ю 5 20 км 9/9 600 м
[Sc]
+20.7 +15.8 74 +24 +24 комфорт 1013.3 1008.9 +17.2
03 17.06 ЮВ 4 20 км 8/4 1000 м
[Sc Ci fib]
+24.0 +16.5 63 +27 +35 жарко 1012.9 1008.6
06 17.06 Ю 4 20 км 4/3 1500 м
[Sc Ci fib]
+24.4 +16.6 62 +28 +35 душно 1011.7 1007.4
09 17.06 Ю 3 20 км 8/0
[Ci fib]
+23.4 +16.4 65 +28 +30 душно 1011.0 1006.7
12 17.06 Ю 3 20 км 8/0
[Ci fib]
+19.9 +15.3 75 +22 +22 комфорт 1012.6 1008.2 +25.7
15 17.06 З 1 20 км 8/0
[Ci fib]
+18.0 +15.4 85 +19 +19 1012.6 1008.2
18 17.06 штиль 0 18 км 5/0
[Ci fib]
+17.5 +15.6 89 +17 +17 1011.8 1007.4
21 17.06 штиль 0 19 км 9/0
[Ci sp]
+17.7 +15.8 89 +18 +18 1011.5 1007.1

 

Местоположение метеостанции Масан (Корея): широта 35.18 долгота 128.56 высота над уровнем моря 4 м.

В архиве по умолчанию представлена погода в Масане за последнюю неделю. Архивные данные за месяц целиком и за предыдущие месяцы, начиная с января 2011 года, Вы можете получить, выбрав интересующий диапазон дат из раскрывающегося списка и нажав кнопку "Ввод!".


*Определитесь, кто Вы:
робот инопланетянин человек

Внимание! Время в таблицах - всемирное. Для получения местного времени необходимо прибавить поправку, которая равна 9 ч.

Смотрите также архив погоды в соседних городах и на ближайших метеорологических станциях:

Погода в Тхонъёне (Корея) (39 км)
Погода в Чинджу (Корея) (41 км)
Погода в Пусане (Корея) (44 км)
Погода в Тэгу (Корея) (78 км)
Погода в Ульсане (Корея) (80 км)
Погода в Чинхэгу (Корея) (81 км)
Погода в Йосу (Корея) (89 км)
Погода в Куми (Корея) (107 км)
Погода в Намвоне (Корея) (114 км)
Погода в Пхохане (Корея) (120 км)

Пояснения к столбцам:

Ветер - указаны скорость ветра в м/с - средняя за 10 мин, порывы в срок и между сроками (в фигурных скобках) и направление, откуда дует ветер: С - северный, СВ - северо-восточный, В - восточный, ЮВ - юго-восточный, Ю - южный, ЮЗ - юго-западный, З - западный, СЗ - северо-западный.
Видимость - горизонтальная дальность видимости в метрах или километрах. При видимости от 1 до 10 км при отсутствии осадков обычно наблюдается дымка, при ухудшении видимости до 1 км и менее - туман. В сухую погоду видимость может ухудшаться дымом, пылью или мглою.
Явления - указаны атмосферные явления, наблюдавшиеся в срок или в последний час перед сроком; фигурными скобками обозначены явления, наблюдавшиеся между сроками (за 1-3 часа до срока); квадратными скобками обозначены град или гололедные отложения с указанием их диаметра в мм.
Облачность - указаны через наклонную черту общая и нижняя облачность в баллах и высота нижней границы облаков в метрах; квадратными скобками обозначены формы облаков: Ci - перистые, Cs - перисто-слоистые, Cc - перисто-кучевые, Ac - высококучевые, As - высокослоистые, Sc - слоисто-кучевые, Ns - слоисто-дождевые, Cu - кучевые, Cb - кучево-дождевые. Подробнее классификацию облаков см. в Атласе облаков (PDF).
T - Температура воздуха - температура, измеренная на высоте 2 м над землей.
Td - Температура точки росы - температура, при понижении до которой содержащийся в воздухе водяной пар достигнет насыщения.
f - Относительная влажность воздуха - влажноcть воздуха, измеренная на высоте 2 м над землей.
Te - Эффективная температура - температура, которую ощущает одетый по сезону человек в тени. Характеристика душности погоды. При расчете учитывается влияние влажности воздуха и скорости ветра на теплоощущения человека.
Tes - Эффективная температура на солнце - температура, которую ощущает человек, с поправкой на солнечный нагрев. Характеристика знойности погоды. Зависит от высоты солнца над горизонтом, облачности и скорости ветра. Ночью, в пасмурную погоду, а также при ветре 12 м/с и более поправка равна нулю.
P - Атмосферное давление - приведенное к уровню моря атмосферное давление.
Po - Атмосферное давление - измеренное на уровне метеостанции атмосферное давление.
Tmin - Минимальная температура - минимум температуры воздуха на высоте 2 м над землей.
Tmax - Максимальная температура - максимум температуры воздуха на высоте 2 м над землей.
R - Количество осадков - Количество выпавших осадков за период времени, мм. При наведении курсора мыши на число - период времени, за который выпало указанное количество осадков.
R24 - Количество осадков - Количество выпавших осадков за 24 часа, мм.
S - Снежный покров - Высота снежного покрова, см. При наведении курсора мыши на число - состояние снежного покрова и степень покрытия местности в баллах.